Home > Weather > Kãnpur > Past weeks

Flag for India Weather for the Past 2 Weeks in Kãnpur, Uttar Pradesh, India

Now
68 °F

Passing clouds.


Feels Like: 68 °F
Forecast: 54 / 74 °F
Wind: No wind

Location: Lucknow / Amausi

Current Time: Feb 7, 2016 at 6:54:25 PM

Latest Report: Feb 7, 2016 at 6:30 PM


Visibility: 1 mi

Pressure: 29.89 "Hg

Humidity: 60%

Dew point: 54 °F

Location of KãnpurLocation

Historic Weather in Kãnpur — Graph

°F

Kãnpur Temperature Yesterday

Maximum temperature yesterday: 77 °F (at 1:30 PM)
Minimum temperature yesterday: 48 °F (at 6:00 AM)
Average temperature yesterday: 63 °F

High & Low Weather Summary for the Past Weeks

 TemperatureHumidityPressure
High82 °F (Jan 31, 2:00 PM)100% (Jan 24, 8:00 AM)30.15 "Hg (Jan 24, 8:00 AM)
Low41 °F (Jan 24, 5:30 AM)29% (Feb 2, 1:30 PM)29.86 "Hg (Jan 30, 3:00 PM)
Average63 °F65%29.99 "Hg
* Reported Jan 23 5:30 PM — Feb 7 5:30 PM, Kãnpur, Weather by CustomWeather, © 2016

Note: Actual official high and low records may vary slightly from our data, if they occured in-between our weather recording intervals... More about our weather records

Advertising

Kãnpur Weather History for the Previous 24 Hours

 ConditionsComfort  
Time TempWeatherWind HumidityBarometerVisibility
5:30 PM
Sun, Feb 7
70 °FBroken clouds.6 mph60%29.89 "Hg1 mi
5:00 PM72 °FBroken clouds.9 mph57%29.89 "Hg1 mi
4:30 PM72 °FBroken clouds.2 mph65%29.89 "Hg1 mi
4:00 PM73 °FBroken clouds.2 mph61%29.89 "Hg1 mi
3:30 PM72 °FBroken clouds.3 mph61%29.89 "Hg1 mi
3:00 PM72 °FScattered clouds.7 mph57%29.89 "Hg1 mi
2:30 PM72 °FBroken clouds.9 mph57%29.89 "Hg1 mi
2:00 PM73 °FBroken clouds.10 mph53%29.89 "Hg1 mi
1:30 PM73 °FBroken clouds.12 mph50%29.92 "Hg1 mi
1:00 PM72 °FBroken clouds.12 mph57%29.95 "Hg1 mi
12:30 PM72 °FBroken clouds.12 mph57%29.95 "Hg1 mi
12:00 PM70 °FBroken clouds.13 mph60%29.95 "Hg1 mi
10:30 AM68 °FBroken clouds.12 mph56%30.01 "Hg1 mi
8:30 AM59 °FFog.9 mph77%29.95 "Hg1 mi
8:00 PM
Sat, Feb 6
63 °FPartly cloudy.No wind68%29.92 "Hg1 mi
7:30 PM63 °FPartly cloudy.No wind68%29.92 "Hg2 mi
7:00 PM64 °FPartly cloudy.No wind64%29.89 "Hg2 mi
6:00 PM68 °FBroken clouds.No wind56%29.89 "Hg2 mi
Weather by CustomWeather, © 2016

See weather overviewHow to use our weather pages